Time,TemperatureF,DewpointF,PressureIn,WindDirection,WindDirectionDegrees,WindSpeedMPH,WindSpeedGustMPH,Humidity,HourlyPrecipIn,Conditions,Clouds,dailyrainin,SoftwareType,DateUTC
2013-04-15 00:00:00,57.6,44.3,29.68,NW,315,2.7,2.9,61,0.00,,,0.00,WUHU216HW,2013-04-15 05:00:00,
2013-04-15 00:05:00,57.4,43.3,29.68,NNW,338,2.9,4.7,59,0.00,,,0.00,WUHU216HW,2013-04-15 05:05:00,
2013-04-15 00:10:00,57.2,42.7,29.68,NW,315,5.1,5.1,58,0.00,,,0.00,WUHU216HW,2013-04-15 05:10:00,
2013-04-15 00:15:00,57.4,43.3,29.68,NNW,338,1.8,5.1,59,0.00,,,0.00,WUHU216HW,2013-04-15 05:15:00,
2013-04-15 00:20:00,57.2,42.1,29.69,WNW,293,2.5,5.1,57,0.00,,,0.00,WUHU216HW,2013-04-15 05:20:00,
2013-04-15 00:25:00,57.4,42.3,29.70,NW,315,1.1,2.5,57,0.00,,,0.00,WUHU216HW,2013-04-15 05:25:00,
2013-04-15 00:30:00,57.2,42.1,29.71,NW,315,0.7,2.5,57,0.00,,,0.00,WUHU216HW,2013-04-15 05:30:00,
2013-04-15 00:35:00,57.1,41.9,29.71,NW,315,1.6,1.6,57,0.00,,,0.00,WUHU216HW,2013-04-15 05:35:00,
2013-04-15 00:40:00,57.1,39.6,29.71,NW,315,3.4,3.4,52,0.00,,,0.00,WUHU216HW,2013-04-15 05:40:00,
2013-04-15 00:45:00,57.2,39.8,29.71,North,0,2.2,3.4,52,0.00,,,0.00,WUHU216HW,2013-04-15 05:45:00,
2013-04-15 00:50:00,57.1,38.2,29.71,NNW,338,8.9,8.9,49,0.00,,,0.00,WUHU216HW,2013-04-15 05:50:00,
2013-04-15 00:55:00,56.5,39.1,29.72,NW,315,2.7,8.9,52,0.00,,,0.00,WUHU216HW,2013-04-15 05:55:00,
2013-04-15 01:00:00,56.5,38.6,29.72,NW,315,3.4,8.9,51,0.00,,,0.00,WUHU216HW,2013-04-15 06:00:00,
2013-04-15 01:05:00,56.5,39.1,29.72,NW,315,1.3,3.4,52,0.00,,,0.00,WUHU216HW,2013-04-15 06:05:00,
2013-04-15 01:10:00,56.2,38.3,29.72,NW,315,0.7,4.0,51,0.00,,,0.00,WUHU216HW,2013-04-15 06:10:00,
2013-04-15 01:15:00,56.3,38.0,29.72,NNW,338,4.0,4.0,50,0.00,,,0.00,WUHU216HW,2013-04-15 06:15:00,
2013-04-15 01:20:00,56.5,37.6,29.72,North,0,4.7,4.7,49,0.00,,,0.00,WUHU216HW,2013-04-15 06:20:00,
2013-04-15 01:25:00,56.3,38.0,29.71,North,0,2.0,4.7,50,0.00,,,0.00,WUHU216HW,2013-04-15 06:25:00,
2013-04-15 01:30:00,56.0,37.6,29.71,NNW,338,2.5,4.7,50,0.00,,,0.00,WUHU216HW,2013-04-15 06:30:00,
2013-04-15 01:35:00,55.6,37.3,29.72,NW,315,4.0,4.0,50,0.00,,,0.00,WUHU216HW,2013-04-15 06:35:00,
2013-04-15 01:40:00,55.4,37.1,29.71,NNW,338,3.6,4.3,50,0.00,,,0.00,WUHU216HW,2013-04-15 06:40:00,
2013-04-15 01:45:00,55.4,37.1,29.71,NNW,338,2.9,4.3,50,0.00,,,0.00,WUHU216HW,2013-04-15 06:45:00,
2013-04-15 01:50:00,55.3,36.9,29.72,WNW,293,1.8,3.6,50,0.00,,,0.00,WUHU216HW,2013-04-15 06:50:00,
2013-04-15 01:55:00,55.3,36.9,29.72,NNW,338,2.2,2.9,50,0.00,,,0.00,WUHU216HW,2013-04-15 06:55:00,
2013-04-15 02:00:00,55.1,37.3,29.71,NNW,338,2.2,2.2,51,0.00,,,0.00,WUHU216HW,2013-04-15 07:00:00,
2013-04-15 02:05:00,54.5,38.6,29.71,NW,315,1.1,2.2,55,0.00,,,0.00,WUHU216HW,2013-04-15 07:05:00,
2013-04-15 02:06:00,54.5,38.6,29.71,NW,315,1.1,2.2,55,0.00,,,0.00,WUHU216HW,2013-04-15 07:06:00,
2013-04-15 02:12:00,53.6,38.7,29.70,NNW,338,1.3,4.5,57,0.00,,,0.00,WUHU216HW,2013-04-15 07:12:00,
2013-04-15 02:18:00,53.3,37.9,29.71,NW,315,0.9,4.5,56,0.00,,,0.00,WUHU216HW,2013-04-15 07:18:00,
2013-04-15 02:24:00,53.1,37.7,29.72,West,270,0.4,0.9,56,0.00,,,0.00,WUHU216HW,2013-04-15 07:24:00,
2013-04-15 02:41:00,52.7,37.9,29.71,NNW,338,0.4,0.7,57,0.00,,,0.00,WUHU216HW,2013-04-15 07:41:00,
2013-04-15 02:46:00,52.9,35.7,29.73,WSW,248,1.6,1.6,52,0.00,,,0.00,WUHU216HW,2013-04-15 07:46:00,
2013-04-15 02:48:00,52.9,35.7,29.73,WSW,248,1.6,1.6,52,0.00,,,0.00,WUHU216HW,2013-04-15 07:48:00,
2013-04-15 02:51:00,53.3,37.0,29.73,WNW,293,0.0,1.6,54,0.00,,,0.00,WUHU216HW,2013-04-15 07:51:00,
2013-04-15 02:56:00,52.9,38.1,29.73,NW,315,0.0,1.6,57,0.00,,,0.00,WUHU216HW,2013-04-15 07:56:00,
2013-04-15 03:01:00,52.6,40.3,29.74,SW,225,1.1,1.1,63,0.00,,,0.00,WUHU216HW,2013-04-15 08:01:00,
2013-04-15 03:06:00,52.2,37.8,29.76,WSW,248,1.1,1.1,58,0.00,,,0.00,WUHU216HW,2013-04-15 08:06:00,
2013-04-15 03:11:00,52.6,37.7,29.76,SW,225,0.9,1.8,57,0.00,,,0.00,WUHU216HW,2013-04-15 08:11:00,
2013-04-15 03:16:00,52.4,38.4,29.76,SSW,203,2.2,2.2,59,0.00,,,0.00,WUHU216HW,2013-04-15 08:16:00,
2013-04-15 03:21:00,52.2,38.3,29.76,SSW,203,2.9,2.9,59,0.00,,,0.00,WUHU216HW,2013-04-15 08:21:00,
2013-04-15 03:27:00,52.0,39.3,29.76,SSW,203,2.2,2.9,62,0.00,,,0.00,WUHU216HW,2013-04-15 08:27:00,
2013-04-15 03:32:00,51.5,40.9,29.76,SSW,203,1.8,2.9,67,0.00,,,0.00,WUHU216HW,2013-04-15 08:32:00,
2013-04-15 03:36:00,51.1,40.2,29.75,South,180,3.1,3.1,66,0.00,,,0.00,WUHU216HW,2013-04-15 08:36:00,
2013-04-15 03:40:00,50.8,40.6,29.76,SSW,203,2.0,3.1,68,0.00,,,0.00,WUHU216HW,2013-04-15 08:40:00,
2013-04-15 03:45:00,50.2,40.1,29.74,SSE,158,1.1,3.1,68,0.00,,,0.00,WUHU216HW,2013-04-15 08:45:00,
2013-04-15 03:50:00,50.0,40.3,29.73,SE,135,1.6,2.0,69,0.00,,,0.00,WUHU216HW,2013-04-15 08:50:00,
2013-04-15 03:55:00,49.9,42.9,29.73,ESE,113,1.8,1.8,77,0.00,,,0.00,WUHU216HW,2013-04-15 08:55:00,
2013-04-15 04:00:00,49.3,43.4,29.76,WNW,293,2.0,2.0,80,0.00,,,0.00,WUHU216HW,2013-04-15 09:00:00,
2013-04-15 04:05:00,49.1,42.5,29.76,SSW,203,2.5,2.7,78,0.00,,,0.00,WUHU216HW,2013-04-15 09:05:00,
2013-04-15 04:10:00,49.1,42.5,29.77,SSW,203,1.1,2.7,78,0.00,,,0.00,WUHU216HW,2013-04-15 09:10:00,
2013-04-15 04:15:00,48.8,43.2,29.78,WSW,248,1.8,2.5,81,0.00,,,0.00,WUHU216HW,2013-04-15 09:15:00,
2013-04-15 04:20:00,48.6,43.3,29.76,SSW,203,2.0,2.5,82,0.00,,,0.00,WUHU216HW,2013-04-15 09:20:00,
2013-04-15 04:25:00,48.1,42.1,29.76,South,180,4.0,4.0,80,0.00,,,0.00,WUHU216HW,2013-04-15 09:25:00,
2013-04-15 04:30:00,47.9,42.3,29.78,SSW,203,5.1,5.1,81,0.00,,,0.00,WUHU216HW,2013-04-15 09:30:00,
2013-04-15 04:35:00,47.7,43.1,29.77,SSW,203,3.4,5.8,84,0.00,,,0.00,WUHU216HW,2013-04-15 09:35:00,
2013-04-15 04:40:00,47.5,42.9,29.78,South,180,3.4,5.8,84,0.00,,,0.00,WUHU216HW,2013-04-15 09:40:00,
2013-04-15 04:45:00,47.5,42.9,29.77,South,180,2.9,3.4,84,0.00,,,0.00,WUHU216HW,2013-04-15 09:45:00,
2013-04-15 04:50:00,47.3,43.0,29.79,WSW,248,2.0,3.4,85,0.00,,,0.00,WUHU216HW,2013-04-15 09:50:00,
2013-04-15 04:55:00,47.3,43.4,29.78,South,180,1.6,2.0,86,0.00,,,0.00,WUHU216HW,2013-04-15 09:55:00,
2013-04-15 05:00:00,47.2,43.2,29.79,SW,225,1.1,2.0,86,0.00,,,0.00,WUHU216HW,2013-04-15 10:00:00,
2013-04-15 05:05:00,47.0,42.8,29.78,NNW,338,1.1,1.1,85,0.00,,,0.00,WUHU216HW,2013-04-15 10:05:00,
2013-04-15 05:10:00,46.8,42.8,29.77,WSW,248,1.1,1.1,86,0.00,,,0.00,WUHU216HW,2013-04-15 10:10:00,
2013-04-15 05:15:00,46.6,42.4,29.78,SSW,203,2.0,2.0,85,0.00,,,0.00,WUHU216HW,2013-04-15 10:15:00,
2013-04-15 05:20:00,46.4,42.2,29.76,NW,315,0.0,2.0,85,0.00,,,0.00,WUHU216HW,2013-04-15 10:20:00,
2013-04-15 05:25:00,46.4,43.1,29.78,SSW,203,2.9,2.9,88,0.00,,,0.00,WUHU216HW,2013-04-15 10:25:00,
2013-04-15 05:30:00,46.3,42.7,29.77,SSE,158,5.1,5.1,87,0.00,,,0.00,WUHU216HW,2013-04-15 10:30:00,
2013-04-15 05:35:00,46.1,42.1,29.79,South,180,3.4,5.1,86,0.00,,,0.00,WUHU216HW,2013-04-15 10:35:00,
2013-04-15 05:40:00,46.1,42.8,29.81,SSW,203,4.7,5.1,88,0.00,,,0.00,WUHU216HW,2013-04-15 10:40:00,
2013-04-15 05:45:00,46.1,42.5,29.77,SSE,158,4.0,4.7,87,0.00,,,0.00,WUHU216HW,2013-04-15 10:45:00,
2013-04-15 05:50:00,45.9,41.9,29.78,SW,225,0.4,4.7,86,0.00,,,0.00,WUHU216HW,2013-04-15 10:50:00,
2013-04-15 05:55:00,45.7,41.8,29.79,NW,315,0.4,0.4,86,0.00,,,0.00,WUHU216HW,2013-04-15 10:55:00,
2013-04-15 06:00:00,45.7,42.1,29.77,WSW,248,0.0,0.4,87,0.00,,,0.00,WUHU216HW,2013-04-15 11:00:00,
2013-04-15 06:05:00,45.5,41.6,29.78,WSW,248,0.0,0.4,86,0.00,,,0.00,WUHU216HW,2013-04-15 11:05:00,
2013-04-15 06:10:00,45.5,42.0,29.79,SSW,203,0.4,0.9,87,0.00,,,0.00,WUHU216HW,2013-04-15 11:10:00,
2013-04-15 06:15:00,45.5,41.6,29.80,WNW,293,0.0,0.9,86,0.00,,,0.00,WUHU216HW,2013-04-15 11:15:00,
2013-04-15 06:20:00,45.4,42.0,29.78,NE,45,1.1,1.1,88,0.00,,,0.00,WUHU216HW,2013-04-15 11:20:00,
2013-04-15 06:25:00,45.4,41.8,29.80,South,180,2.5,2.5,87,0.00,,,0.00,WUHU216HW,2013-04-15 11:25:00,
2013-04-15 06:30:00,45.5,42.8,29.76,East,90,1.1,3.1,90,0.00,,,0.00,WUHU216HW,2013-04-15 11:30:00,
2013-04-15 06:35:00,45.4,42.9,29.76,ESE,113,0.0,3.1,91,0.00,,,0.00,WUHU216HW,2013-04-15 11:35:00,
2013-04-15 06:40:00,45.2,42.8,29.77,SE,135,0.2,1.1,91,0.00,,,0.00,WUHU216HW,2013-04-15 11:40:00,
2013-04-15 06:45:00,45.2,42.5,29.77,South,180,0.0,0.9,90,0.00,,,0.00,WUHU216HW,2013-04-15 11:45:00,
2013-04-15 06:50:00,45.2,42.5,29.77,East,90,0.7,0.9,90,0.00,,,0.00,WUHU216HW,2013-04-15 11:50:00,
2013-04-15 06:55:00,45.0,42.0,29.77,East,90,0.0,0.9,89,0.00,,,0.00,WUHU216HW,2013-04-15 11:55:00,
2013-04-15 07:00:00,45.0,41.7,29.77,ESE,113,0.0,0.7,88,0.00,,,0.00,WUHU216HW,2013-04-15 12:00:00,
2013-04-15 07:05:00,45.2,41.9,29.78,SE,135,0.0,0.0,88,0.00,,,0.00,WUHU216HW,2013-04-15 12:05:00,
2013-04-15 07:10:00,45.2,41.9,29.78,SE,135,0.0,0.0,88,0.00,,,0.00,WUHU216HW,2013-04-15 12:10:00,
2013-04-15 07:15:00,45.0,41.7,29.78,SE,135,0.0,0.0,88,0.00,,,0.00,WUHU216HW,2013-04-15 12:15:00,
2013-04-15 07:20:00,45.2,41.9,29.78,SE,135,0.0,0.0,88,0.00,,,0.00,WUHU216HW,2013-04-15 12:20:00,
2013-04-15 07:25:00,45.2,42.2,29.77,SE,135,0.0,0.0,89,0.00,,,0.00,WUHU216HW,2013-04-15 12:25:00,
2013-04-15 07:30:00,45.4,42.0,29.78,SE,135,0.0,0.0,88,0.00,,,0.00,WUHU216HW,2013-04-15 12:30:00,
2013-04-15 07:35:00,45.5,42.2,29.78,SE,135,0.0,0.0,88,0.00,,,0.00,WUHU216HW,2013-04-15 12:35:00,
2013-04-15 07:40:00,45.5,42.2,29.78,SE,135,0.0,0.0,88,0.00,,,0.00,WUHU216HW,2013-04-15 12:40:00,
2013-04-15 07:45:00,45.7,42.4,29.78,SE,135,0.0,0.0,88,0.00,,,0.00,WUHU216HW,2013-04-15 12:45:00,
2013-04-15 07:50:00,45.7,42.4,29.78,SE,135,0.2,0.2,88,0.00,,,0.00,WUHU216HW,2013-04-15 12:50:00,
2013-04-15 07:55:00,45.9,42.6,29.79,South,180,0.0,0.2,88,0.00,,,0.00,WUHU216HW,2013-04-15 12:55:00,
2013-04-15 08:01:00,45.9,42.6,29.80,WNW,293,0.0,0.0,88,0.00,,,0.00,WUHU216HW,2013-04-15 13:01:00,
2013-04-15 08:06:00,45.9,42.6,29.79,NNW,338,0.4,0.4,88,0.00,,,0.00,WUHU216HW,2013-04-15 13:06:00,
2013-04-15 08:11:00,46.1,42.5,29.79,NW,315,0.0,0.4,87,0.00,,,0.00,WUHU216HW,2013-04-15 13:11:00,
2013-04-15 08:16:00,46.1,42.8,29.79,NW,315,0.0,0.0,88,0.00,,,0.00,WUHU216HW,2013-04-15 13:16:00,
2013-04-15 08:21:00,46.3,42.9,29.79,NNW,338,0.0,0.0,88,0.00,,,0.00,WUHU216HW,2013-04-15 13:21:00,
2013-04-15 08:27:00,46.4,43.1,29.79,NNW,338,0.0,0.2,88,0.00,,,0.00,WUHU216HW,2013-04-15 13:27:00,
2013-04-15 08:32:00,46.4,43.5,29.79,NNW,338,0.0,0.2,89,0.00,,,0.00,WUHU216HW,2013-04-15 13:32:00,
2013-04-15 08:37:00,46.4,43.5,29.79,WSW,248,1.1,1.1,89,0.00,,,0.00,WUHU216HW,2013-04-15 13:37:00,
2013-04-15 08:42:00,46.6,43.9,29.78,WSW,248,0.0,1.1,90,0.00,,,0.00,WUHU216HW,2013-04-15 13:42:00,
2013-04-15 08:47:00,46.8,43.5,29.78,NW,315,0.0,1.1,88,0.00,,,0.00,WUHU216HW,2013-04-15 13:47:00,
2013-04-15 08:52:00,47.2,43.8,29.78,SE,135,0.9,0.9,88,0.00,,,0.00,WUHU216HW,2013-04-15 13:52:00,
2013-04-15 08:57:00,47.2,43.8,29.78,SSE,158,0.7,0.9,88,0.00,,,0.00,WUHU216HW,2013-04-15 13:57:00,
2013-04-15 09:02:00,47.3,44.0,29.79,SSE,158,0.0,0.9,88,0.00,,,0.00,WUHU216HW,2013-04-15 14:02:00,
2013-04-15 09:07:00,47.5,44.2,29.79,South,180,1.1,1.1,88,0.00,,,0.00,WUHU216HW,2013-04-15 14:07:00,
2013-04-15 09:12:00,47.5,44.2,29.79,SSW,203,0.4,1.1,88,0.00,,,0.00,WUHU216HW,2013-04-15 14:12:00,
2013-04-15 09:17:00,47.7,44.4,29.79,SSW,203,0.0,1.1,88,0.00,,,0.00,WUHU216HW,2013-04-15 14:17:00,
2013-04-15 09:23:00,47.9,44.2,29.79,WNW,293,0.0,0.4,87,0.00,,,0.00,WUHU216HW,2013-04-15 14:23:00,
2013-04-15 09:28:00,47.9,44.2,29.79,NW,315,0.2,0.2,87,0.00,,,0.00,WUHU216HW,2013-04-15 14:28:00,
2013-04-15 09:33:00,48.1,44.4,29.79,NW,315,0.0,0.2,87,0.00,,,0.00,WUHU216HW,2013-04-15 14:33:00,
2013-04-15 09:38:00,48.1,44.4,29.79,NW,315,0.4,0.4,87,0.00,,,0.00,WUHU216HW,2013-04-15 14:38:00,
2013-04-15 09:43:00,48.2,44.6,29.80,NW,315,0.0,0.4,87,0.00,,,0.00,WUHU216HW,2013-04-15 14:43:00,
2013-04-15 09:48:00,48.1,44.1,29.80,NW,315,0.0,0.0,86,0.00,,,0.00,WUHU216HW,2013-04-15 14:48:00,
2013-04-15 09:53:00,48.2,44.3,29.80,NW,315,0.9,0.9,86,0.00,,,0.00,WUHU216HW,2013-04-15 14:53:00,
2013-04-15 09:58:00,48.6,44.3,29.80,WNW,293,0.0,0.9,85,0.00,,,0.00,WUHU216HW,2013-04-15 14:58:00,
2013-04-15 10:03:00,48.6,44.3,29.80,NW,315,0.0,0.4,85,0.00,,,0.00,WUHU216HW,2013-04-15 15:03:00,
2013-04-15 10:08:00,48.8,44.1,29.81,NNW,338,1.1,1.1,84,0.00,,,0.00,WUHU216HW,2013-04-15 15:08:00,
2013-04-15 10:13:00,49.0,44.7,29.81,West,270,0.0,1.1,85,0.00,,,0.00,WUHU216HW,2013-04-15 15:13:00,
2013-04-15 10:18:00,49.0,44.7,29.81,NW,315,0.9,1.1,85,0.00,,,0.00,WUHU216HW,2013-04-15 15:18:00,
2013-04-15 10:23:00,49.0,44.7,29.82,NW,315,0.7,0.9,85,0.00,,,0.00,WUHU216HW,2013-04-15 15:23:00,
2013-04-15 10:28:00,49.0,44.9,29.82,NW,315,0.4,0.9,86,0.00,,,0.00,WUHU216HW,2013-04-15 15:28:00,
2013-04-15 10:33:00,49.0,44.7,29.82,NNW,338,0.9,0.9,85,0.00,,,0.00,WUHU216HW,2013-04-15 15:33:00,
2013-04-15 10:38:00,49.3,44.7,29.82,NNW,338,0.9,0.9,84,0.00,,,0.00,WUHU216HW,2013-04-15 15:38:00,
2013-04-15 10:43:00,49.3,44.3,29.82,NNW,338,0.7,0.9,83,0.00,,,0.00,WUHU216HW,2013-04-15 15:43:00,
2013-04-15 10:48:00,49.3,42.4,29.82,North,0,2.9,2.9,77,0.00,,,0.00,WUHU216HW,2013-04-15 15:48:00,
2013-04-15 10:53:00,49.5,42.6,29.83,North,0,2.0,2.9,77,0.00,,,0.00,WUHU216HW,2013-04-15 15:53:00,
2013-04-15 10:58:00,49.5,42.6,29.82,North,0,2.2,2.9,77,0.00,,,0.00,WUHU216HW,2013-04-15 15:58:00,
2013-04-15 11:03:00,49.7,43.0,29.83,North,0,1.1,2.2,78,0.00,,,0.00,WUHU216HW,2013-04-15 16:03:00,
2013-04-15 11:08:00,49.5,43.2,29.82,NNW,338,1.1,1.3,79,0.00,,,0.00,WUHU216HW,2013-04-15 16:08:00,
2013-04-15 11:13:00,49.7,43.4,29.83,North,0,2.0,2.0,79,0.00,,,0.00,WUHU216HW,2013-04-15 16:13:00,
2013-04-15 11:18:00,49.7,43.0,29.83,NNW,338,0.7,2.0,78,0.00,,,0.00,WUHU216HW,2013-04-15 16:18:00,
2013-04-15 11:23:00,49.9,43.6,29.83,NNE,23,1.3,2.0,79,0.00,,,0.00,WUHU216HW,2013-04-15 16:23:00,
2013-04-15 11:28:00,50.0,43.1,29.83,North,0,3.1,3.1,77,0.00,,,0.00,WUHU216HW,2013-04-15 16:28:00,
2013-04-15 11:33:00,50.0,43.1,29.83,North,0,2.2,3.8,77,0.00,,,0.00,WUHU216HW,2013-04-15 16:33:00,
2013-04-15 11:38:00,50.0,43.4,29.83,North,0,2.0,3.8,78,0.00,,,0.00,WUHU216HW,2013-04-15 16:38:00,
2013-04-15 11:44:00,50.2,43.6,29.83,North,0,2.5,2.5,78,0.00,,,0.00,WUHU216HW,2013-04-15 16:44:00,
2013-04-15 11:49:00,50.4,43.7,29.82,NNE,23,3.4,3.4,78,0.00,,,0.00,WUHU216HW,2013-04-15 16:49:00,
2013-04-15 11:54:00,50.6,43.7,29.82,NNW,338,2.5,3.4,77,0.00,,,0.00,WUHU216HW,2013-04-15 16:54:00,
2013-04-15 11:59:00,50.9,42.9,29.82,NNW,338,4.5,5.4,74,0.00,,,0.00,WUHU216HW,2013-04-15 16:59:00,
2013-04-15 12:04:00,50.9,43.3,29.81,NNW,338,2.9,5.4,75,0.00,,,0.00,WUHU216HW,2013-04-15 17:04:00,
2013-04-15 12:09:00,51.1,43.1,29.81,North,0,2.5,6.3,74,0.00,,,0.00,WUHU216HW,2013-04-15 17:09:00,
2013-04-15 12:14:00,51.1,42.8,29.82,NE,45,2.7,6.3,73,0.00,,,0.00,WUHU216HW,2013-04-15 17:14:00,
2013-04-15 12:19:00,51.5,41.7,29.82,NNE,23,4.5,4.5,69,0.00,,,0.00,WUHU216HW,2013-04-15 17:19:00,
2013-04-15 12:21:00,51.5,41.7,29.82,NNE,23,4.5,4.5,69,0.00,,,0.00,WUHU216HW,2013-04-15 17:21:00,
2013-04-15 12:22:00,51.7,43.0,29.82,North,0,2.7,4.5,72,0.00,,,0.00,WUHU216HW,2013-04-15 17:22:00,
2013-04-15 12:25:00,51.8,43.2,29.82,NNE,23,2.7,4.5,72,0.00,,,0.00,WUHU216HW,2013-04-15 17:25:00,
2013-04-15 12:30:00,52.2,43.1,29.81,NE,45,3.6,4.5,71,0.00,,,0.00,WUHU216HW,2013-04-15 17:30:00,
2013-04-15 12:35:00,52.0,42.7,29.82,NNE,23,5.1,5.1,70,0.00,,,0.00,WUHU216HW,2013-04-15 17:35:00,
2013-04-15 12:40:00,52.0,43.0,29.82,North,0,4.0,5.1,71,0.00,,,0.00,WUHU216HW,2013-04-15 17:40:00,
2013-04-15 12:45:00,51.7,41.9,29.82,North,0,5.1,5.1,69,0.00,,,0.00,WUHU216HW,2013-04-15 17:45:00,
2013-04-15 12:50:00,51.7,42.7,29.81,North,0,4.7,5.1,71,0.00,,,0.00,WUHU216HW,2013-04-15 17:50:00,
2013-04-15 12:55:00,51.7,43.3,29.82,NNW,338,1.8,6.0,73,0.00,,,0.00,WUHU216HW,2013-04-15 17:55:00,
2013-04-15 13:00:00,51.7,43.0,29.82,North,0,4.9,6.0,72,0.00,,,0.00,WUHU216HW,2013-04-15 18:00:00,
2013-04-15 13:05:00,51.7,43.0,29.82,North,0,7.6,7.6,72,0.00,,,0.00,WUHU216HW,2013-04-15 18:05:00,
2013-04-15 13:10:00,51.7,43.0,29.82,NNW,338,2.7,7.6,72,0.00,,,0.00,WUHU216HW,2013-04-15 18:10:00,
2013-04-15 13:15:00,51.8,42.5,29.82,North,0,1.1,2.7,70,0.00,,,0.00,WUHU216HW,2013-04-15 18:15:00,
2013-04-15 13:20:00,52.2,41.1,29.81,North,0,6.3,6.3,66,0.00,,,0.00,WUHU216HW,2013-04-15 18:20:00,
2013-04-15 13:25:00,52.2,40.3,29.81,North,0,6.5,6.5,64,0.00,,,0.00,WUHU216HW,2013-04-15 18:25:00,
2013-04-15 13:29:00,52.0,39.8,29.81,NNW,338,4.5,6.5,63,0.00,,,0.00,WUHU216HW,2013-04-15 18:29:00,
2013-04-15 13:34:00,51.7,38.2,29.81,North,0,6.9,8.5,60,0.00,,,0.00,WUHU216HW,2013-04-15 18:34:00,
2013-04-15 13:39:00,51.7,39.0,29.81,North,0,6.3,8.5,62,0.00,,,0.00,WUHU216HW,2013-04-15 18:39:00,
2013-04-15 13:44:00,51.3,38.7,29.80,NNW,338,9.8,9.8,62,0.00,,,0.00,WUHU216HW,2013-04-15 18:44:00,
2013-04-15 13:49:00,51.1,40.2,29.80,NNE,23,4.7,9.8,66,0.00,,,0.00,WUHU216HW,2013-04-15 18:49:00,
2013-04-15 13:54:00,51.3,41.1,29.80,NNW,338,6.3,6.9,68,0.00,,,0.00,WUHU216HW,2013-04-15 18:54:00,
2013-04-15 13:59:00,51.1,41.0,29.80,NNW,338,4.9,6.3,68,0.00,,,0.00,WUHU216HW,2013-04-15 18:59:00,
2013-04-15 14:04:00,50.9,41.2,29.80,NNW,338,9.2,9.2,69,0.00,,,0.00,WUHU216HW,2013-04-15 19:04:00,
2013-04-15 14:09:00,50.9,42.0,29.80,NNW,338,4.7,9.2,71,0.00,,,0.00,WUHU216HW,2013-04-15 19:09:00,
2013-04-15 14:14:00,50.9,41.6,29.80,NNW,338,6.7,9.2,70,0.00,,,0.00,WUHU216HW,2013-04-15 19:14:00,
2013-04-15 14:19:00,50.8,40.6,29.80,NNW,338,6.9,7.6,68,0.00,,,0.00,WUHU216HW,2013-04-15 19:19:00,
2013-04-15 14:24:00,50.8,40.2,29.80,North,0,13.9,13.9,67,0.00,,,0.00,WUHU216HW,2013-04-15 19:24:00,
2013-04-15 14:29:00,50.4,38.6,29.80,NNW,338,12.5,13.9,64,0.00,,,0.00,WUHU216HW,2013-04-15 19:29:00,
2013-04-15 14:35:00,50.2,37.7,29.80,NNW,338,3.4,13.9,62,0.00,,,0.00,WUHU216HW,2013-04-15 19:35:00,
2013-04-15 14:40:00,50.0,36.3,29.80,NNE,23,9.6,12.5,59,0.00,,,0.00,WUHU216HW,2013-04-15 19:40:00,
2013-04-15 14:45:00,49.9,37.0,29.80,NNE,23,8.1,9.6,61,0.00,,,0.00,WUHU216HW,2013-04-15 19:45:00,
2013-04-15 14:50:00,49.7,37.5,29.80,North,0,7.6,9.6,63,0.00,,,0.00,WUHU216HW,2013-04-15 19:50:00,
2013-04-15 14:56:00,49.5,37.5,29.81,NNW,338,13.0,13.0,63,0.00,,,0.00,WUHU216HW,2013-04-15 19:56:00,
2013-04-15 14:57:00,49.5,37.5,29.81,NNW,338,13.0,13.0,63,0.00,,,0.00,WUHU216HW,2013-04-15 19:57:00,
2013-04-15 15:01:00,49.3,37.6,29.81,NW,315,6.9,13.0,64,0.00,,,0.00,WUHU216HW,2013-04-15 20:01:00,
2013-04-15 15:02:00,49.3,37.6,29.81,NW,315,6.9,13.0,64,0.00,,,0.00,WUHU216HW,2013-04-15 20:02:00,
2013-04-15 15:07:00,49.1,37.4,29.81,NNW,338,8.9,8.9,64,0.00,,,0.00,WUHU216HW,2013-04-15 20:07:00,
2013-04-15 15:12:00,49.3,38.4,29.81,NNE,23,6.5,8.9,66,0.00,,,0.00,WUHU216HW,2013-04-15 20:12:00,
2013-04-15 15:17:00,49.3,38.4,29.81,NNW,338,6.9,8.9,66,0.00,,,0.00,WUHU216HW,2013-04-15 20:17:00,
2013-04-15 15:22:00,49.3,38.8,29.81,North,0,4.7,9.2,67,0.00,,,0.00,WUHU216HW,2013-04-15 20:22:00,
2013-04-15 15:27:00,49.5,39.0,29.81,North,0,9.8,9.8,67,0.00,,,0.00,WUHU216HW,2013-04-15 20:27:00,
2013-04-15 15:32:00,49.7,39.2,29.81,NE,45,6.7,9.8,67,0.00,,,0.00,WUHU216HW,2013-04-15 20:32:00,
2013-04-15 15:37:00,49.7,40.0,29.81,NNE,23,5.1,9.8,69,0.00,,,0.00,WUHU216HW,2013-04-15 20:37:00,
2013-04-15 15:42:00,49.7,39.2,29.81,NNW,338,6.5,6.9,67,0.00,,,0.00,WUHU216HW,2013-04-15 20:42:00,
2013-04-15 15:47:00,49.7,38.3,29.80,NE,45,9.6,9.6,65,0.00,,,0.00,WUHU216HW,2013-04-15 20:47:00,
2013-04-15 15:52:00,49.5,38.2,29.80,NNE,23,8.9,12.1,65,0.00,,,0.00,WUHU216HW,2013-04-15 20:52:00,
2013-04-15 15:57:00,49.3,38.0,29.80,North,0,7.6,12.1,65,0.00,,,0.00,WUHU216HW,2013-04-15 20:57:00,
2013-04-15 16:02:00,49.3,38.8,29.80,NNE,23,6.0,8.9,67,0.00,,,0.00,WUHU216HW,2013-04-15 21:02:00,
2013-04-15 16:07:00,49.3,38.4,29.80,ENE,68,6.9,12.1,66,0.00,,,0.00,WUHU216HW,2013-04-15 21:07:00,
2013-04-15 16:12:00,49.3,38.4,29.80,NE,45,7.6,12.1,66,0.00,,,0.00,WUHU216HW,2013-04-15 21:12:00,
2013-04-15 16:17:00,49.3,38.8,29.80,NNW,338,6.0,12.3,67,0.00,,,0.00,WUHU216HW,2013-04-15 21:17:00,
2013-04-15 16:22:00,49.1,38.6,29.80,NNW,338,9.2,12.3,67,0.00,,,0.00,WUHU216HW,2013-04-15 21:22:00,
2013-04-15 16:27:00,49.1,39.0,29.81,North,0,7.4,9.2,68,0.00,,,0.00,WUHU216HW,2013-04-15 21:27:00,
2013-04-15 16:32:00,49.1,38.6,29.81,NNE,23,10.5,10.5,67,0.00,,,0.00,WUHU216HW,2013-04-15 21:32:00,
2013-04-15 16:37:00,48.8,37.5,29.81,NNE,23,8.9,10.5,65,0.00,,,0.00,WUHU216HW,2013-04-15 21:37:00,
2013-04-15 16:42:00,48.6,37.7,29.81,North,0,7.2,8.9,66,0.00,,,0.00,WUHU216HW,2013-04-15 21:42:00,
2013-04-15 16:47:00,48.6,37.7,29.81,NNE,23,8.1,8.9,66,0.00,,,0.00,WUHU216HW,2013-04-15 21:47:00,
2013-04-15 16:52:00,48.6,37.7,29.81,NNW,338,5.4,9.6,66,0.00,,,0.00,WUHU216HW,2013-04-15 21:52:00,
2013-04-15 16:57:00,48.6,38.1,29.81,North,0,4.0,9.6,67,0.00,,,0.00,WUHU216HW,2013-04-15 21:57:00,
2013-04-15 17:02:00,48.6,38.5,29.81,NE,45,2.9,5.4,68,0.00,,,0.00,WUHU216HW,2013-04-15 22:02:00,
2013-04-15 17:07:00,48.8,38.6,29.81,NNE,23,4.5,4.9,68,0.00,,,0.00,WUHU216HW,2013-04-15 22:07:00,
2013-04-15 17:12:00,48.6,38.5,29.81,NNE,23,4.5,7.4,68,0.00,,,0.00,WUHU216HW,2013-04-15 22:12:00,
2013-04-15 17:17:00,49.0,38.8,29.81,NNE,23,5.1,7.4,68,0.00,,,0.00,WUHU216HW,2013-04-15 22:17:00,
2013-04-15 17:22:00,49.0,38.4,29.81,NNE,23,3.8,5.4,67,0.00,,,0.00,WUHU216HW,2013-04-15 22:22:00,
2013-04-15 17:27:00,49.0,38.1,29.81,North,0,4.9,6.5,66,0.00,,,0.00,WUHU216HW,2013-04-15 22:27:00,
2013-04-15 17:32:00,49.0,37.7,29.81,North,0,8.5,8.5,65,0.00,,,0.00,WUHU216HW,2013-04-15 22:32:00,
2013-04-15 17:37:00,49.0,37.7,29.81,NNE,23,4.9,8.5,65,0.00,,,0.00,WUHU216HW,2013-04-15 22:37:00,
2013-04-15 17:42:00,49.0,37.7,29.81,NE,45,6.7,8.5,65,0.00,,,0.00,WUHU216HW,2013-04-15 22:42:00,
2013-04-15 17:47:00,49.0,38.1,29.82,NE,45,6.9,6.9,66,0.00,,,0.00,WUHU216HW,2013-04-15 22:47:00,
2013-04-15 17:52:00,49.0,38.1,29.82,NE,45,4.3,6.9,66,0.00,,,0.00,WUHU216HW,2013-04-15 22:52:00,
2013-04-15 17:57:00,48.8,37.5,29.82,NNE,23,7.8,7.8,65,0.00,,,0.00,WUHU216HW,2013-04-15 22:57:00,
2013-04-15 18:02:00,48.6,37.0,29.82,North,0,8.3,8.3,64,0.00,,,0.00,WUHU216HW,2013-04-15 23:02:00,
2013-04-15 18:07:00,48.6,37.4,29.82,NNE,23,6.3,10.5,65,0.00,,,0.00,WUHU216HW,2013-04-15 23:07:00,
2013-04-15 18:12:00,48.4,37.5,29.82,North,0,3.1,10.5,66,0.00,,,0.00,WUHU216HW,2013-04-15 23:12:00,
2013-04-15 18:17:00,48.4,37.2,29.82,North,0,6.3,7.8,65,0.00,,,0.00,WUHU216HW,2013-04-15 23:17:00,
2013-04-15 18:22:00,48.4,37.2,29.82,NW,315,6.9,9.2,65,0.00,,,0.00,WUHU216HW,2013-04-15 23:22:00,
2013-04-15 18:27:00,48.4,37.2,29.82,NNE,23,4.5,9.2,65,0.00,,,0.00,WUHU216HW,2013-04-15 23:27:00,
2013-04-15 18:32:00,48.2,37.4,29.82,North,0,6.9,7.8,66,0.00,,,0.00,WUHU216HW,2013-04-15 23:32:00,
2013-04-15 18:37:00,48.2,37.4,29.82,North,0,6.7,9.2,66,0.00,,,0.00,WUHU216HW,2013-04-15 23:37:00,
2013-04-15 18:42:00,48.2,37.7,29.82,NNE,23,6.5,9.2,67,0.00,,,0.00,WUHU216HW,2013-04-15 23:42:00,
2013-04-15 18:47:00,48.2,37.4,29.82,North,0,5.8,6.7,66,0.00,,,0.00,WUHU216HW,2013-04-15 23:47:00,
2013-04-15 18:52:00,48.2,37.7,29.82,North,0,6.3,6.5,67,0.00,,,0.00,WUHU216HW,2013-04-15 23:52:00,
2013-04-15 18:57:00,48.2,37.7,29.82,North,0,6.3,6.3,67,0.00,,,0.00,WUHU216HW,2013-04-15 23:57:00,
2013-04-15 19:02:00,48.1,38.0,29.83,North,0,5.4,5.4,68,0.00,,,0.00,WUHU216HW,2013-04-16 00:02:00,
2013-04-15 19:07:00,47.9,37.8,29.83,North,0,8.5,8.5,68,0.00,,,0.00,WUHU216HW,2013-04-16 00:07:00,
2013-04-15 19:12:00,47.9,37.8,29.83,North,0,5.8,8.5,68,0.00,,,0.00,WUHU216HW,2013-04-16 00:12:00,
2013-04-15 19:17:00,47.9,37.8,29.83,NNE,23,8.3,8.5,68,0.00,,,0.00,WUHU216HW,2013-04-16 00:17:00,
2013-04-15 19:22:00,47.9,38.2,29.83,North,0,10.5,10.5,69,0.00,,,0.00,WUHU216HW,2013-04-16 00:22:00,
2013-04-15 19:27:00,47.9,38.5,29.83,NNW,338,6.9,10.5,70,0.00,,,0.00,WUHU216HW,2013-04-16 00:27:00,
2013-04-15 19:32:00,47.7,38.4,29.83,NNE,23,9.8,10.5,70,0.00,,,0.00,WUHU216HW,2013-04-16 00:32:00,
2013-04-15 19:37:00,47.5,38.3,29.83,North,0,9.4,10.5,70,0.00,,,0.00,WUHU216HW,2013-04-16 00:37:00,
2013-04-15 19:42:00,47.5,38.6,29.83,NNW,338,4.0,10.5,71,0.00,,,0.00,WUHU216HW,2013-04-16 00:42:00,
2013-04-15 19:47:00,47.5,38.6,29.83,NE,45,7.2,9.2,71,0.00,,,0.00,WUHU216HW,2013-04-16 00:47:00,
2013-04-15 19:52:00,47.5,38.3,29.83,North,0,8.5,12.8,70,0.00,,,0.00,WUHU216HW,2013-04-16 00:52:00,
2013-04-15 19:57:00,47.3,36.9,29.84,North,0,6.3,12.8,67,0.00,,,0.00,WUHU216HW,2013-04-16 00:57:00,
2013-04-15 20:02:00,47.2,36.0,29.84,NNE,23,7.6,11.2,65,0.00,,,0.00,WUHU216HW,2013-04-16 01:02:00,
2013-04-15 20:07:00,47.2,36.0,29.85,North,0,4.7,11.2,65,0.00,,,0.00,WUHU216HW,2013-04-16 01:07:00,
2013-04-15 20:12:00,47.2,35.6,29.85,North,0,8.7,8.7,64,0.00,,,0.00,WUHU216HW,2013-04-16 01:12:00,
2013-04-15 20:17:00,47.2,35.6,29.85,North,0,10.1,10.1,64,0.00,,,0.00,WUHU216HW,2013-04-16 01:17:00,
2013-04-15 20:22:00,47.0,35.8,29.86,North,0,10.1,10.1,65,0.00,,,0.00,WUHU216HW,2013-04-16 01:22:00,
2013-04-15 20:27:00,47.0,35.8,29.87,North,0,6.7,10.1,65,0.00,,,0.00,WUHU216HW,2013-04-16 01:27:00,
2013-04-15 20:32:00,47.0,35.8,29.87,NNW,338,9.6,10.1,65,0.00,,,0.00,WUHU216HW,2013-04-16 01:32:00,
2013-04-15 20:37:00,47.0,35.8,29.87,NNE,23,6.7,9.6,65,0.00,,,0.00,WUHU216HW,2013-04-16 01:37:00,
2013-04-15 20:42:00,47.0,36.2,29.87,NNE,23,7.4,9.6,66,0.00,,,0.00,WUHU216HW,2013-04-16 01:42:00,
2013-04-15 20:47:00,47.0,36.2,29.87,NNE,23,6.9,9.8,66,0.00,,,0.00,WUHU216HW,2013-04-16 01:47:00,
2013-04-15 20:52:00,47.0,36.2,29.88,NNW,338,6.3,9.8,66,0.00,,,0.00,WUHU216HW,2013-04-16 01:52:00,
2013-04-15 20:57:00,47.0,36.5,29.88,North,0,8.7,8.7,67,0.00,,,0.00,WUHU216HW,2013-04-16 01:57:00,
2013-04-15 21:02:00,47.0,36.2,29.89,NNE,23,9.8,9.8,66,0.00,,,0.00,WUHU216HW,2013-04-16 02:02:00,
2013-04-15 21:07:00,47.0,36.5,29.88,North,0,9.6,9.8,67,0.00,,,0.00,WUHU216HW,2013-04-16 02:07:00,
2013-04-15 21:12:00,47.0,37.0,29.89,NE,45,6.5,11.4,68,0.00,,,0.00,WUHU216HW,2013-04-16 02:12:00,
2013-04-15 21:17:00,46.8,36.5,29.89,NNW,338,6.9,11.4,67,0.00,,,0.00,WUHU216HW,2013-04-16 02:17:00,
2013-04-15 21:22:00,46.8,36.8,29.89,NNW,338,4.7,10.7,68,0.00,,,0.00,WUHU216HW,2013-04-16 02:22:00,
2013-04-15 21:27:00,46.8,36.5,29.89,NE,45,9.8,9.8,67,0.00,,,0.00,WUHU216HW,2013-04-16 02:27:00,
2013-04-15 21:32:00,47.0,37.0,29.89,North,0,8.5,9.8,68,0.00,,,0.00,WUHU216HW,2013-04-16 02:32:00,
2013-04-15 21:37:00,47.0,37.0,29.90,NE,45,9.8,9.8,68,0.00,,,0.00,WUHU216HW,2013-04-16 02:37:00,
2013-04-15 21:42:00,47.0,37.0,29.90,North,0,8.3,9.8,68,0.00,,,0.00,WUHU216HW,2013-04-16 02:42:00,
2013-04-15 21:47:00,46.8,37.2,29.90,NNE,23,9.6,9.6,69,0.00,,,0.00,WUHU216HW,2013-04-16 02:47:00,
2013-04-15 21:52:00,47.0,37.0,29.90,North,0,6.5,9.6,68,0.00,,,0.00,WUHU216HW,2013-04-16 02:52:00,
2013-04-15 21:57:00,47.0,37.0,29.91,NNE,23,6.3,9.6,68,0.00,,,0.00,WUHU216HW,2013-04-16 02:57:00,
2013-04-15 22:02:00,47.0,37.0,29.91,North,0,7.6,7.6,68,0.00,,,0.00,WUHU216HW,2013-04-16 03:02:00,
2013-04-15 22:07:00,47.0,37.4,29.91,North,0,7.4,7.6,69,0.00,,,0.00,WUHU216HW,2013-04-16 03:07:00,
2013-04-15 22:12:00,45.7,38.6,29.91,North,0,5.1,10.5,76,0.00,,,0.00,WUHU216HW,2013-04-16 03:12:00,
2013-04-15 22:17:00,45.4,38.3,29.91,North,0,9.4,10.5,76,0.00,,,0.00,WUHU216HW,2013-04-16 03:17:00,
2013-04-15 22:22:00,45.4,38.3,29.92,NNW,338,4.5,9.4,76,0.00,,,0.00,WUHU216HW,2013-04-16 03:22:00,
2013-04-15 22:27:00,45.4,38.6,29.92,NNW,338,4.9,9.4,77,0.00,,,0.00,WUHU216HW,2013-04-16 03:27:00,
2013-04-15 22:32:00,45.4,38.6,29.92,NNW,338,9.6,9.6,77,0.00,,,0.00,WUHU216HW,2013-04-16 03:32:00,
2013-04-15 22:37:00,45.0,38.3,29.92,North,0,8.1,9.6,77,0.00,,,0.00,WUHU216HW,2013-04-16 03:37:00,
2013-04-15 22:42:00,44.8,38.1,29.92,North,0,9.6,9.6,77,0.00,,,0.00,WUHU216HW,2013-04-16 03:42:00,
2013-04-15 22:47:00,44.8,38.1,29.92,NNE,23,8.1,9.6,77,0.00,,,0.00,WUHU216HW,2013-04-16 03:47:00,
2013-04-15 22:52:00,45.0,38.3,29.93,North,0,9.2,9.6,77,0.00,,,0.00,WUHU216HW,2013-04-16 03:52:00,
2013-04-15 22:57:00,45.0,37.9,29.92,NNW,338,13.4,13.4,76,0.00,,,0.00,WUHU216HW,2013-04-16 03:57:00,
2013-04-15 23:00:00,45.0,37.9,29.92,North,0,13.2,13.4,76,0.00,,,0.00,WUHU216HW,2013-04-16 04:00:00,
2013-04-15 23:05:00,44.8,37.7,29.92,North,0,6.9,13.4,76,0.00,,,0.00,WUHU216HW,2013-04-16 04:05:00,
2013-04-15 23:10:00,44.8,37.4,29.92,North,0,8.5,11.6,75,0.00,,,0.00,WUHU216HW,2013-04-16 04:10:00,
2013-04-15 23:15:00,44.8,37.7,29.93,North,0,7.2,8.5,76,0.00,,,0.00,WUHU216HW,2013-04-16 04:15:00,
2013-04-15 23:20:00,44.6,37.5,29.92,North,0,8.5,9.8,76,0.00,,,0.00,WUHU216HW,2013-04-16 04:20:00,
2013-04-15 23:25:00,44.6,37.5,29.92,North,0,6.7,10.5,76,0.00,,,0.00,WUHU216HW,2013-04-16 04:25:00,
2013-04-15 23:30:00,44.5,37.0,29.92,NNE,23,6.9,10.5,75,0.00,,,0.00,WUHU216HW,2013-04-16 04:30:00,
2013-04-15 23:35:00,44.5,37.0,29.93,North,0,5.8,6.9,75,0.00,,,0.00,WUHU216HW,2013-04-16 04:35:00,
2013-04-15 23:40:00,44.5,36.6,29.93,North,0,6.7,9.2,74,0.00,,,0.00,WUHU216HW,2013-04-16 04:40:00,
2013-04-15 23:45:00,44.5,36.6,29.94,North,0,6.0,9.2,74,0.00,,,0.00,WUHU216HW,2013-04-16 04:45:00,
2013-04-15 23:50:00,44.5,36.6,29.93,NNE,23,10.7,10.7,74,0.00,,,0.00,WUHU216HW,2013-04-16 04:50:00,
2013-04-15 23:55:00,44.5,36.6,29.94,NNE,23,8.5,10.7,74,0.00,,,0.00,WUHU216HW,2013-04-16 04:55:00,